Total_Precipitation_Accumulation
0.60 0.92 1.20 1.22 1.24 1.18 1.02 0.99 1.05 1.01 0.90 1.02 1.02 1.03 1.09 1.14 1.26 1.21 1.09 1.08 1.08 1.11 1.13 1.12 1.09 1.16 1.24 1.26 1.23 1.22 1.39 1.52 1.61 1.86 2.15 2.64 2.92 2.98 2.80 2.75 2.64 2.40 2.15 2.11
0.73 0.73 0.60 0.66 0.73 0.87 0.90 0.98 0.98 0.92 0.82 0.88 0.87 0.88 0.87 0.88 0.89 0.91 0.86 0.89 1.00 1.04 1.15 1.12 1.08 1.09 1.10 1.10 1.14 1.32 1.47 1.57 1.64 1.87 2.17 2.52 2.94 3.05 2.97 2.80 2.69 2.56 2.39 2.34
0.61 0.53 0.48 0.61 0.73 0.83 0.84 0.92 0.93 0.99 0.94 0.84 0.81 0.91 0.86 0.79 0.75 0.72 0.76 0.81 0.86 0.83 0.95 1.03 1.06 1.12 1.09 1.05 1.02 1.16 1.42 1.65 1.92 2.15 2.43 2.60 2.88 2.99 2.99 2.83 2.74 2.71 2.59 2.46
0.67 0.51 0.50 0.64 0.67 0.69 0.90 0.63 0.61 0.73 1.06 1.14 0.86 1.06 0.86 0.74 0.83 0.81 0.78 0.78 0.78 0.79 0.84 0.91 0.99 1.06 1.06 0.98 0.96 1.06 1.25 1.56 1.99 2.28 2.47 2.68 3.02 3.13 2.99 2.89 2.78 2.78 2.76 2.72
0.67 0.50 0.51 0.60 0.53 0.51 0.69 0.56 0.58 0.68 0.93 1.01 0.78 0.82 0.78 0.70 0.79 0.79 0.72 0.69 0.69 0.67 0.68 0.78 0.84 0.86 0.93 1.01 1.03 1.09 1.33 1.67 2.06 2.21 2.40 2.70 2.85 2.96 3.07 2.94 2.86 2.82 2.86 2.87
0.58 0.44 0.44 0.48 0.45 0.45 0.53 0.69 0.78 0.79 0.97 1.03 0.60 0.67 0.79 0.65 0.55 0.60 0.64 0.61 0.59 0.56 0.56 0.68 0.84 0.90 0.98 1.07 1.16 1.28 1.46 1.71 2.04 2.22 2.43 2.51 2.64 2.81 2.90 2.94 2.86 2.82 2.84 2.95
0.59 0.48 0.37 0.35 0.51 0.54 0.60 1.02 1.41 1.38 1.34 1.02 0.51 0.63 0.75 0.52 0.41 0.48 0.54 0.56 0.55 0.58 0.65 0.78 0.96 1.15 1.23 1.30 1.32 1.43 1.60 1.84 2.04 2.15 2.26 2.29 2.32 2.42 2.40 2.56 2.64 2.77 2.76 2.79
0.57 0.54 0.34 0.30 0.40 0.53 0.53 0.80 1.30 1.42 1.18 0.88 0.65 0.85 0.81 0.52 0.44 0.48 0.51 0.55 0.59 0.69 0.80 0.98 1.18 1.41 1.51 1.61 1.61 1.61 1.68 1.83 1.93 2.00 2.06 2.15 2.16 2.18 2.12 2.11 2.13 2.31 2.46 2.50
0.55 0.49 0.27 0.27 0.32 0.43 0.56 0.64 0.68 0.91 0.79 0.79 0.76 0.84 0.84 0.62 0.55 0.54 0.57 0.64 0.74 0.92 1.07 1.24 1.43 1.55 1.56 1.67 1.72 1.69 1.72 1.76 1.79 1.92 1.99 1.91 1.90 1.94 1.94 1.92 1.99 2.01 2.05 2.07
0.54 0.57 0.34 0.30 0.40 0.42 0.50 0.67 0.88 1.20 1.30 1.12 0.88 0.95 0.98 0.82 0.68 0.61 0.67 0.79 0.97 1.23 1.41 1.61 1.80 1.79 1.74 1.78 1.92 1.87 1.79 1.77 1.83 1.90 1.95 1.88 1.88 1.87 1.84 1.75 1.82 1.80 1.73 1.71
0.46 0.66 0.52 0.41 0.43 0.45 0.53 0.72 0.94 1.25 1.31 1.46 1.47 1.47 1.12 0.91 0.88 0.96 1.04 1.16 1.36 1.60 1.81 1.97 2.10 2.09 1.92 1.82 1.84 1.82 1.77 1.77 1.75 1.82 1.93 1.91 1.87 1.86 1.83 1.71 1.65 1.68 1.67 1.66
0.45 0.69 0.66 0.44 0.36 0.40 0.62 0.85 1.10 1.62 1.54 1.35 1.56 1.68 1.22 1.01 1.04 1.07 1.10 1.27 1.49 1.61 1.70 1.78 1.85 1.98 1.85 1.76 1.68 1.70 1.68 1.56 1.61 1.68 1.80 1.93 1.85 1.81 1.78 1.66 1.72 1.66 1.58 1.57
0.56 0.79 0.94 0.81 0.68 0.67 0.81 0.87 1.00 1.19 1.40 1.45 1.67 1.81 1.32 1.13 1.11 1.09 1.18 1.26 1.31 1.30 1.41 1.56 1.69 1.69 1.72 1.73 1.66 1.80 1.89 1.76 1.78 1.83 1.97 1.99 1.91 1.86 1.85 1.72 1.81 1.71 1.61 1.58
0.59 0.71 0.85 1.00 0.93 0.90 0.96 0.85 0.81 1.04 1.35 1.32 1.36 1.47 1.25 1.22 1.20 1.08 1.12 1.15 1.22 1.22 1.26 1.33 1.47 1.46 1.60 1.73 1.72 1.83 1.90 1.89 1.91 2.03 2.12 2.00 1.93 1.87 1.84 1.73 1.69 1.66 1.59 1.53
0.53 0.55 0.48 0.49 0.47 0.56 0.79 0.92 0.83 0.86 0.97 1.24 1.11 0.99 1.03 1.06 1.11 1.10 1.06 1.06 1.06 1.11 1.10 1.07 1.12 1.20 1.33 1.43 1.50 1.58 1.62 1.66 1.81 1.90 1.93 1.93 1.81 1.68 1.63 1.67 1.50 1.50 1.59 1.57
0.46 0.46 0.36 0.31 0.29 0.40 0.65 0.79 0.81 0.79 0.78 0.82 0.73 0.73 0.70 0.75 0.80 0.85 0.89 0.82 0.83 0.90 0.91 0.88 0.89 0.95 1.03 0.99 1.05 1.18 1.33 1.51 1.67 1.74 1.70 1.72 1.69 1.65 1.59 1.53 1.48 1.44 1.44 1.48
0.47 0.51 0.54 0.42 0.31 0.43 0.71 0.74 0.78 0.63 0.49 0.50 0.59 0.62 0.56 0.57 0.65 0.72 0.79 0.81 0.78 0.79 0.82 0.85 0.85 0.82 0.86 0.86 0.91 0.99 1.14 1.35 1.49 1.56 1.49 1.39 1.41 1.45 1.44 1.43 1.46 1.46 1.43 1.42
0.42 0.56 0.72 0.60 0.56 0.83 0.94 0.74 0.64 0.57 0.44 0.38 0.42 0.48 0.48 0.49 0.57 0.64 0.68 0.76 0.72 0.69 0.71 0.78 0.81 0.81 0.82 0.88 0.95 1.03 1.10 1.15 1.28 1.41 1.45 1.37 1.30 1.31 1.33 1.34 1.40 1.46 1.40 1.35
0.39 0.57 0.82 0.79 0.76 0.76 0.73 0.56 0.53 0.63 0.66 0.41 0.38 0.41 0.40 0.38 0.49 0.55 0.61 0.63 0.57 0.53 0.52 0.58 0.62 0.65 0.71 0.77 0.83 0.85 0.89 0.92 1.01 1.11 1.19 1.22 1.16 1.21 1.33 1.31 1.40 1.47 1.36 1.32
0.53 0.56 0.83 0.87 0.90 0.91 0.70 0.39 0.35 0.52 0.87 0.53 0.40 0.36 0.32 0.36 0.52 0.52 0.51 0.50 0.43 0.40 0.37 0.39 0.49 0.53 0.57 0.62 0.75 0.81 0.78 0.73 0.79 0.89 0.91 1.00 1.06 1.12 1.22 1.36 1.45 1.43 1.38 1.34
0.56 0.64 0.78 0.93 1.09 1.07 0.74 0.43 0.41 0.82 1.00 0.58 0.43 0.37 0.34 0.41 0.43 0.43 0.43 0.43 0.36 0.36 0.35 0.35 0.43 0.53 0.59 0.60 0.68 0.74 0.77 0.72 0.73 0.82 0.87 0.91 0.94 1.03 1.21 1.34 1.36 1.31 1.28 1.29
0.75 0.94 1.02 1.14 1.39 1.43 0.89 0.69 0.78 0.81 0.60 0.48 0.38 0.39 0.40 0.41 0.37 0.37 0.37 0.34 0.29 0.30 0.33 0.34 0.37 0.49 0.61 0.59 0.57 0.61 0.65 0.67 0.71 0.73 0.81 0.80 0.82 0.88 0.99 1.10 1.20 1.23 1.23 1.24
0.71 1.05 1.27 1.25 1.27 1.05 0.79 0.72 0.67 0.59 0.51 0.42 0.38 0.38 0.41 0.39 0.34 0.31 0.29 0.30 0.27 0.27 0.31 0.36 0.42 0.52 0.63 0.64 0.56 0.55 0.58 0.63 0.68 0.71 0.77 0.75 0.73 0.80 0.88 0.99 1.12 1.22 1.26 1.24
0.48 0.54 0.67 0.72 0.72 0.65 0.53 0.46 0.48 0.46 0.44 0.36 0.33 0.36 0.40 0.42 0.38 0.32 0.27 0.27 0.28 0.28 0.31 0.36 0.46 0.52 0.64 0.67 0.59 0.56 0.58 0.61 0.63 0.68 0.75 0.83 0.85 0.86 0.89 0.93 1.03 1.20 1.26 1.18
0.43 0.47 0.53 0.57 0.50 0.48 0.42 0.38 0.39 0.39 0.35 0.30 0.29 0.31 0.35 0.39 0.38 0.34 0.31 0.31 0.30 0.30 0.30 0.34 0.43 0.51 0.61 0.74 0.69 0.62 0.61 0.62 0.61 0.65 0.69 0.71 0.79 0.84 0.84 0.83 0.85 0.97 1.06 1.16
0.37 0.52 0.63 0.57 0.42 0.46 0.46 0.38 0.35 0.36 0.32 0.29 0.31 0.35 0.34 0.31 0.32 0.31 0.31 0.35 0.35 0.33 0.33 0.37 0.40 0.47 0.52 0.66 0.76 0.73 0.72 0.71 0.68 0.64 0.68 0.71 0.74 0.79 0.79 0.79 0.85 0.87 0.91 1.07